Weather History for Kelso-Longview, WA

Change the Weather History Date:

Sunday, November 3, 2013

  Actual Average Record
Temperature  
Mean Temperature 44 °F -  
Max Temperature 48 °F 52 °F 75 °F (2010)
Min Temperature 41 °F 38 °F 24 °F (2002)
Degree Days  
Heating Degree Days 20    
Moisture  
Dew Point 40 °F    
Average Humidity 81    
Maximum Humidity 87    
Minimum Humidity 71    
Precipitation  
Precipitation 0.11 in - - ()
Sea Level Pressure  
Sea Level Pressure 30.13 in    
Wind  
Wind Speed 5 mph (SSE)    
Max Wind Speed 10 mph    
Max Gust Speed -    
Visibility 10 miles    
Events      
Averages and records for this station are not official NWS values.
T = Trace of Precipitation, MM = Missing Value Source: NWS Daily Summary

Daily Weather History Graph

Daily Weather History Graph

Search for Another Location

Airport:

Trip Planner

Search our weather history database for the weather conditions in past years. The results will help you decide how hot, cold, wet, or windy it might be!

Date:

Astronomy

Nov. 03, 2013 Rise Set
Actual Time 6:55 AM PST 4:53 PM PST
Civil Twilight 6:24 AM PST 5:25 PM PST
Nautical Twilight 5:48 AM PST 6:00 PM PST
Astronomical Twilight 5:13 AM PST 6:35 PM PST
Moon 7:06 AM PST (11/3) 5:11 PM PST (11/3)
Length of Visible Light 11h 01m
Length of Day
9h 58m
New Moon, 0% of the Moon is Illuminated
Nov 3
New Moon
Nov 9
First Quarter
Nov 17
Full
Nov 25
Last Quarter
Dec 2
New

Hourly Weather History & Observations

Time (PST) Temp. Windchill Dew Point Humidity Pressure Visibility Wind Dir Wind Speed Gust Speed Precip Events Conditions
12:15 AM 42.8 °F 38.6 °F 37.4 °F 81% 30.05 in 10.0 mi SSE 6.9 mph - N/A   Mostly Cloudy
12:35 AM 42.8 °F 39.3 °F 37.4 °F 81% 30.06 in 10.0 mi SE 5.8 mph - N/A   Mostly Cloudy
12:55 AM 42.8 °F 38.0 °F 37.4 °F 81% 30.06 in 10.0 mi SE 8.1 mph - 0.01 in   Mostly Cloudy
1:15 AM 42.8 °F 41.1 °F 39.2 °F 87% 30.08 in 10.0 mi SSE 3.5 mph - N/A   Overcast
1:35 AM 42.8 °F 39.3 °F 39.2 °F 87% 30.07 in 10.0 mi SE 5.8 mph - N/A   Mostly Cloudy
1:55 AM 42.8 °F - 39.2 °F 87% 30.08 in 10.0 mi Calm Calm - N/A   Overcast
1:15 AM 42.8 °F 40.1 °F 39.2 °F 87% 30.08 in 10.0 mi SSE 4.6 mph - N/A   Mostly Cloudy
1:35 AM 42.8 °F 39.3 °F 39.2 °F 87% 30.08 in 10.0 mi SE 5.8 mph - N/A   Mostly Cloudy
1:55 AM 44.6 °F 41.4 °F 37.4 °F 76% 30.09 in 10.0 mi SSE 5.8 mph - 0.01 in   Overcast
2:15 AM 44.6 °F 41.4 °F 37.4 °F 76% 30.09 in 10.0 mi ESE 5.8 mph - N/A   Overcast
2:35 AM 42.8 °F 40.1 °F 37.4 °F 81% 30.09 in 10.0 mi SSE 4.6 mph - N/A   Overcast
2:55 AM 42.8 °F 40.1 °F 37.4 °F 81% 30.08 in 10.0 mi SE 4.6 mph - N/A   Overcast
3:15 AM 42.8 °F 40.1 °F 37.4 °F 81% 30.09 in 10.0 mi SE 4.6 mph - N/A   Overcast
3:35 AM 42.8 °F 39.3 °F 39.2 °F 87% 30.09 in 10.0 mi SSE 5.8 mph - N/A   Overcast
3:55 AM 42.8 °F 40.1 °F 39.2 °F 87% 30.09 in 10.0 mi SE 4.6 mph - N/A   Overcast
4:15 AM 42.8 °F 39.3 °F 37.4 °F 81% 30.09 in 10.0 mi SE 5.8 mph - N/A   Overcast
4:35 AM 42.8 °F 40.1 °F 37.4 °F 81% 30.09 in 10.0 mi SSE 4.6 mph - N/A   Mostly Cloudy
4:55 AM 42.8 °F 39.3 °F 37.4 °F 81% 30.10 in 10.0 mi South 5.8 mph - N/A   Overcast
5:15 AM 42.8 °F - 39.2 °F 87% 30.10 in 10.0 mi Calm Calm - N/A   Overcast
5:35 AM 42.8 °F 39.3 °F 39.2 °F 87% 30.10 in 10.0 mi SSE 5.8 mph - N/A   Overcast
5:55 AM 42.8 °F 38.6 °F 39.2 °F 87% 30.11 in 10.0 mi SSE 6.9 mph - N/A   Overcast
6:15 AM 42.8 °F 38.6 °F 39.2 °F 87% 30.11 in 10.0 mi SE 6.9 mph - N/A   Overcast
6:35 AM 42.8 °F 38.0 °F 39.2 °F 87% 30.12 in 10.0 mi SSE 8.1 mph - N/A   Overcast
6:55 AM 42.8 °F 38.0 °F 39.2 °F 87% 30.12 in 10.0 mi SE 8.1 mph - N/A   Overcast
7:15 AM 42.8 °F 38.6 °F 39.2 °F 87% 30.13 in 10.0 mi SSE 6.9 mph - N/A   Overcast
7:35 AM 42.8 °F 37.0 °F 39.2 °F 87% 30.13 in 10.0 mi SE 10.4 mph - N/A   Overcast
7:55 AM 42.8 °F 39.3 °F 39.2 °F 87% 30.14 in 10.0 mi SE 5.8 mph - N/A   Overcast
8:15 AM 42.8 °F 38.6 °F 39.2 °F 87% 30.14 in 10.0 mi SE 6.9 mph - N/A   Overcast
8:35 AM 44.6 °F 39.7 °F 39.2 °F 81% 30.15 in 10.0 mi SSE 9.2 mph - N/A   Mostly Cloudy
8:55 AM 44.6 °F 40.7 °F 39.2 °F 81% 30.15 in 10.0 mi SSE 6.9 mph - N/A   Mostly Cloudy
9:15 AM 44.6 °F 40.2 °F 39.2 °F 81% 30.15 in 10.0 mi SE 8.1 mph - N/A   Overcast
9:35 AM 46.4 °F 42.4 °F 39.2 °F 76% 30.15 in 10.0 mi SSE 8.1 mph - N/A   Overcast
9:55 AM 46.4 °F 43.5 °F 41.0 °F 81% 30.15 in 10.0 mi SE 5.8 mph - N/A   Overcast
10:15 AM 48.2 °F - 41.0 °F 76% 30.16 in 10.0 mi SSE 6.9 mph - N/A   Scattered Clouds
10:35 AM 48.2 °F - 41.0 °F 76% 30.15 in 10.0 mi SSE 6.9 mph - N/A   Clear
10:55 AM 48.2 °F - 41.0 °F 76% 30.16 in 10.0 mi SSE 8.1 mph - N/A   Scattered Clouds
11:15 AM 48.2 °F - 41.0 °F 76% 30.15 in 10.0 mi South 8.1 mph - N/A   Mostly Cloudy
11:35 AM 48.2 °F - 39.2 °F 71% 30.15 in 10.0 mi SSE 6.9 mph - N/A   Overcast
11:55 AM 48.2 °F - 41.0 °F 76% 30.15 in 6.0 mi Calm Calm - 0.02 in   Overcast
12:15 PM 46.4 °F - 41.0 °F 81% 30.15 in 5.0 mi Calm Calm - 0.06 in   Overcast
12:35 PM 48.2 °F - 42.8 °F 82% 30.14 in 10.0 mi ESE 5.8 mph - 0.06 in   Overcast
12:55 PM 48.2 °F - 42.8 °F 82% 30.14 in 10.0 mi SSE 8.1 mph - 0.07 in   Overcast
1:15 PM 48.2 °F - 42.8 °F 82% 30.14 in 10.0 mi South 4.6 mph - N/A   Overcast
1:35 PM 48.2 °F - 41.0 °F 76% 30.14 in 10.0 mi SE 4.6 mph - N/A   Overcast
1:55 PM 48.2 °F - 41.0 °F 76% 30.14 in 10.0 mi South 5.8 mph - N/A   Mostly Cloudy
2:15 PM 48.2 °F - 41.0 °F 76% 30.14 in 10.0 mi Calm Calm - N/A   Mostly Cloudy
2:35 PM 48.2 °F - 39.2 °F 71% 30.15 in 10.0 mi Calm Calm - N/A   Mostly Cloudy
2:55 PM 48.2 °F - 39.2 °F 71% 30.14 in 10.0 mi Calm Calm - N/A   Mostly Cloudy
3:15 PM 48.2 °F - 39.2 °F 71% 30.14 in 10.0 mi Calm Calm - N/A   Partly Cloudy
3:35 PM 48.2 °F - 39.2 °F 71% 30.14 in 10.0 mi SSW 3.5 mph - N/A   Partly Cloudy
3:55 PM 48.2 °F - 39.2 °F 71% 30.14 in 10.0 mi South 3.5 mph - N/A   Clear
4:15 PM 48.2 °F - 42.8 °F 82% 30.13 in 10.0 mi SSE 3.5 mph - N/A   Mostly Cloudy
4:35 PM 48.2 °F - 41.0 °F 76% 30.14 in 10.0 mi SSE 3.5 mph - N/A   Overcast
4:55 PM 48.2 °F - 41.0 °F 76% 30.14 in 10.0 mi Calm Calm - N/A   Mostly Cloudy
5:15 PM 48.2 °F - 41.0 °F 76% 30.14 in 10.0 mi Calm Calm - N/A   Mostly Cloudy
5:35 PM 46.4 °F - 42.8 °F 87% 30.14 in 10.0 mi Calm Calm - N/A   Overcast
5:55 PM 46.4 °F - 41.0 °F 81% 30.14 in 10.0 mi Calm Calm - N/A   Mostly Cloudy
6:15 PM 46.4 °F - 42.8 °F 87% 30.14 in 10.0 mi Calm Calm - N/A   Overcast
6:35 PM 46.4 °F - 41.0 °F 81% 30.14 in 10.0 mi Calm Calm - N/A   Mostly Cloudy
6:55 PM 44.6 °F - 41.0 °F 87% 30.15 in 10.0 mi Calm Calm - N/A   Mostly Cloudy
7:15 PM 44.6 °F - 41.0 °F 87% 30.15 in 10.0 mi Calm Calm - N/A   Partly Cloudy
7:35 PM 44.6 °F - 39.2 °F 81% 30.15 in 10.0 mi Calm Calm - N/A   Partly Cloudy
7:55 PM 44.6 °F - 39.2 °F 81% 30.16 in 10.0 mi Calm Calm - N/A   Mostly Cloudy
8:15 PM 42.8 °F - 39.2 °F 87% 30.15 in 10.0 mi Calm Calm - N/A   Scattered Clouds
8:35 PM 42.8 °F - 39.2 °F 87% 30.15 in 9.0 mi Calm Calm - N/A   Scattered Clouds
8:55 PM 42.8 °F - 39.2 °F 87% 30.16 in 10.0 mi Calm Calm - N/A   Mostly Cloudy
9:15 PM 42.8 °F - 37.4 °F 81% 30.16 in 10.0 mi Calm Calm - N/A   Overcast
9:35 PM 42.8 °F - 37.4 °F 81% 30.16 in 10.0 mi Calm Calm - N/A   Overcast
9:55 PM 42.8 °F - 39.2 °F 87% 30.16 in 10.0 mi Calm Calm - N/A   Mostly Cloudy
10:15 PM 41.0 °F 39.0 °F 37.4 °F 87% 30.17 in 10.0 mi ESE 3.5 mph - N/A   Mostly Cloudy
10:35 PM 42.8 °F 41.1 °F 37.4 °F 81% 30.17 in 10.0 mi SSE 3.5 mph - N/A   Overcast
10:55 PM 42.8 °F 41.1 °F 37.4 °F 81% 30.16 in 10.0 mi ESE 3.5 mph - N/A   Overcast